Location: Bagnolo San Vito
(45.0833°N, 10.8833°E)
Time: 00:34:49
(UTC+00:00)

Meteor 1-5 Rocket - Pass Details

Date: 03 March 2021
Orbit: 790 x 914 km, 81.2° (Epoch: 17 April)

Event Time Altitude Azimuth Distance (km) Brightness Sun altitude
Rises 18:30:02 0° 181° (S) 3,282 7.2 -15.5°
Reaches altitude 10° 18:32:23 10° 178° (S) 2,366 6.4 -15.9°
Maximum altitude 18:37:40 67° 97° (E) 879 4.0 -16.8°
Drops below altitude 10° 18:43:08 10° 16° (NNE) 2,448 6.5 -17.8°
Sets 18:45:36 0° 14° (NNE) 3,406 7.3 -18.2°
